Regional Weather Roundup
Issued by NWS

Home | Current Version | Previous Version | Graphics & Text | Print | Product List | Glossary On
Versions: 1 2 3 4 5 6 7 8 9 10 11 12 13 14 15 16 17 18 19 20 21 22 23 24 25 26 27 28 29 30 31 32 33 34 35 36 37 38 39 40 41 42 43 44 45 46 47 48 49 50
000
ASUS43 KMKX 310200
RWRWI

WISCONSIN REGIONAL WEATHER ROUNDUP
NATIONAL WEATHER SERVICE MILWAUKEE/SULLIVAN WI
900 PM CDT SUN AUG 30 2015

NOTE: "FAIR" INDICATES FEW OR NO CLOUDS BELOW 12,000 FEET WITH NO
SIGNIFICANT WEATHER AND/OR OBSTRUCTIONS TO VISIBILITY.

WIZ001-002-006>008-014>016-023>028-310300-
NORTHWEST WISCONSIN

CITY           SKY/WX    TMP DP  RH WIND       PRES   REMARKS
SUPERIOR ARPT  PTCLDY    70  64  83 SW5       29.87R
ASHLAND        CLEAR     67  64  90 S6        29.90R
HAYWARD        CLEAR     67  63  87 S6        29.94R
SIREN          CLEAR     71  64  80 S5        29.93R
CUMBERLAND     CLEAR     64  63  94 S6        29.96R
RICE LAKE      CLEAR     65  63  90 SE5       29.97R
CHETEK         CLEAR    N/A N/A N/A SE3       29.96R
LADYSMITH      CLEAR     67  63  87 S5        29.99R
EAU CLAIRE     NOT AVBL
MENOMONIE      CLEAR     66  63  91 SE5       29.96S
NEW RICHMOND   CLEAR     69  64  86 S6        29.95R
OSCEOLA        CLEAR     69  69 100 SE5       29.96R
$$

WIZ003>005-009-010-017-018-310300-
NORTH CENTRAL WISCONSIN

CITY           SKY/WX    TMP DP  RH WIND       PRES   REMARKS
MANITOWISH WTR CLEAR     67  65  93 S5        29.97R
ARBOR VITAE    CLEAR     67  64  91 S5        29.98R
WOODRUFF       CLEAR     67  64  91 S5        29.98R
RHINELANDER    CLEAR     67  62  84 SW6       30.00R
EAGLE RIVER    CLEAR     67  60  78 SW3       29.97R
LAND O LAKES   CLEAR     68  63  82 S3        29.97R
PHILLIPS       CLEAR     66  63  90 SW5       29.97R
TOMAHAWK       CLEAR     63  61  94 CALM      29.99R
MEDFORD        CLEAR     65  63  93 S7        30.00R
MERRILL        CLEAR     67  65  91 CALM      30.00R
$$

WIZ029-030-035-036-043>047-310300-
CENTRAL WISCONSIN

CITY           SKY/WX    TMP DP  RH WIND       PRES   REMARKS
WAUSAU         CLEAR     68  64  87 SW7       29.98R
MOSINEE        NOT AVBL
MARSHFIELD     CLEAR     66  61  84 SW3       30.01R
STEVENS POINT  CLEAR     65  62  91 SW5       30.01R
WAUPACA        CLEAR     68  67  95 CALM      30.00R
WAUTOMA        NOT AVBL
WISC RAPIDS    CLEAR     65  62  90 SW3       30.02R
CAMP DOUGLAS   CLEAR     62  62 100 CALM      30.01R FOG
$$

WIZ011>013-019>022-031-037>040-048>050-310300-
NORTHEAST WISCONSIN

CITY           SKY/WX    TMP DP  RH WIND       PRES   REMARKS
ANTIGO         CLEAR     62  61  97 SW6       30.01R
SHAWANO        CLEAR     69  64  86 CALM      29.98S
OCONTO         CLEAR     66  66 100 CALM      29.97R
STURGEON BAY   CLEAR     63  57  82 S6        30.01R
GREEN BAY      CLEAR     67  63  87 S6        29.99R
MANITOWOC      NOT AVBL
APPLETON       CLEAR     64  63  94 S6        29.99R
CLINTONVILLE   CLEAR     64  63  94 S3        29.99R
OSHKOSH        CLEAR     63  61  93 S6        30.00S
$$

WIZ032>034-041-042-053>061-310300-
SOUTHWEST WISCONSIN

CITY           SKY/WX    TMP DP  RH WIND       PRES   REMARKS
LA CROSSE      CLEAR     68  64  87 S3        29.98S
SPARTA         CLEAR     64  62  93 CALM      30.01R
VIROQUA          N/A     64  64 100 S3        30.02R
BOSCOBEL       FOG       64  63  96 CALM      30.01R VSB 1/2
PRAIRIE DU CHI CLEAR     67  64  91 E3        30.00R
PLATTEVILLE    CLEAR     67  65  93 CALM      30.02S
$$

WIZ056-057-062-063-064-067-068-310300-
SOUTH CENTRAL WISCONSIN

CITY           SKY/WX    TMP DP  RH WIND       PRES   REMARKS
REEDSBURG      CLEAR     65  64  95 CALM      30.00S
BARABOO/DELLS  CLEAR     65  62  90 CALM      30.00S
LONE ROCK      NOT AVBL
MINERAL POINT  CLEAR     68  64  88 CALM      30.03R
MADISON        MOCLDY    65  63  93 CALM      30.01R
MIDDLETON      CLEAR     65  64  95 CALM      30.02R
WATERTOWN      CLEAR     63  63 100 CALM      30.02R
MONROE         CLEAR     68  64  88 S3        30.03R
JANESVILLE     CLEAR     66  64  94 CALM      30.03R
$$

WIZ051-052-058>065-066-070>072-310300-
SOUTHEAST WISCONSIN

CITY           SKY/WX    TMP DP  RH WIND       PRES   REMARKS
MILWAUKEE      CLEAR     64  61  90 S6        30.03R FOG
WAUKESHA       CLEAR     64  63  94 CALM      30.04R
MILWAUKEE/TIMM CLEAR     66  61  82 CALM      30.04R
RACINE         CLEAR     64  61  90 S6        30.06R FOG
BURLINGTON     CLEAR     61  60  96 SW3       30.04R
KENOSHA        CLEAR     64  62  93 S6        30.05R FOG
FOND DU LAC    CLEAR     63  62  97 S5        30.02R
SHEBOYGAN      CLEAR     61  60  97 S5        30.02R
WEST BEND      CLEAR     63  59  88 CALM      30.03R
JUNEAU         CLEAR     65  62  91 SE3       30.03R
$$

LSZ147-162-310300-
LAKE SUPERIOR

STATION/POSITION TIME  TEMP    WIND        PRES    WAVE
                       AIR SEA DIR/SP/G            HT/PER
                 (UTC) (F)     (DEG/KT/KT) (MB)    (FT/S)
W MID LAKE BUOY  0050   62 56  160/  4/  4 1010.7S   1
DEVILS ISLAND    0100   74     200/ 10/ 12 1010.6S
PORT WING        0100   73     170/  3/  4 1011.5R
SAXON HARBOR     0140   74     200/  7/ 10 1011.5R
$$

LMZ867-665-643>646-310300-
LAKE MICHIGAN

STATION/POSITION TIME  TEMP    WIND        PRES    WAVE
                       AIR SEA DIR/SP/G            HT/PER
                 (UTC) (F)     (DEG/KT/KT) (MB)    (FT/S)
CHAMBERS ISLAND  0100   68     180/  8/ 13 1014.2R
S GREEN BAY BUOY 0100   66 64  210/  8/  8 1016.2R
N MID LAKE BUOY  0050   65 65  210/ 16/ 17 1014.0R   2/ 4
NORTHPORT PIER   0100   64     160/  4/ 14 1014.2R
SHEBOYGAN LAKESH 0100   61     180/ 12/ 12 1016.5R
PORT WASHINGTON  0100   59     200/  4/  5 1016.9S
ATWATER BUOY     0100   55 51  190/  2/  4 1017.9R
MILWAUKEE LAKESH 0100   62     160/  9/ 10   N/A
S MID LAKE BUOY  0050   67 68  140/  4/  6 1016.6R   0
KENOSHA   LAKESH 0100   64     180/  8/  9 1016.6R
$$

TC  - TEMPERATURE IN CELSIUS
VSB - VISIBILITY IN STATUTE MILES
WCI - WIND CHILL INDEX
HX  - HEAT INDEX




USA.gov is the U.S. government's official web portal to all federal, state and local government web resources and services.